Regional Weather Roundup
Issued by NWS

Home | Current Version | Previous Version | Text Only | Print | Product List | Glossary On
Versions: 1 2 3 4 5 6 7 8 9 10 11 12 13 14 15 16 17 18 19 20 21 22 23 24 25 26 27 28 29 30 31 32 33 34 35 36 37 38 39 40 41 42 43 44 45 46 47 48 49 50
000
ASUS43 KOAX 310810
RWRNE

WEATHER ROUNDUP FOR NEBRASKA
NATIONAL WEATHER SERVICE OMAHA NE
200 AM CST SAT JAN 31 2015

NOTES: SATELLITE DATA IS BEING USED TO AUGMENT CLOUD COVER ABOVE
       12000 FEET.
       "FAIR" INDICATES FEW OR NO CLOUDS BELOW 12,000 FEET WITH NO
       SIGNIFICANT WEATHER AND/OR OBSTRUCTIONS TO VISIBILITY.

  * THESE STATIONS DO NOT REPORT WEATHER SUCH AS RAIN...SNOW OR FOG.

NEZ001>004-019>022-054>056-310900-
NEBRASKA PANHANDLE

CITY           SKY/WX    TMP DP  RH WIND       PRES   REMARKS
SCOTTSBLUFF    CLOUDY    35  26  69 N6        30.03S WCI  30
ALLIANCE       CLOUDY    28  26  92 N6        30.02F WCI  22
CHADRON        CLOUDY    28  24  85 W3        30.07F
KIMBALL        CLOUDY    31  27  82 NW3       29.99F
SIDNEY         CLOUDY    29  26  89 N6        30.00F WCI  23
$$

NEZ057>060-069>072-079>082-310900-
SOUTHWEST NEBRASKA

CITY           SKY/WX    TMP DP  RH WIND       PRES   REMARKS
NORTH PLATTE   CLOUDY    36  32  85 S10       30.08F WCI  28
IMPERIAL       CLOUDY    34  32  92 SE9       30.03F WCI  27
LEXINGTON      CLOUDY    35  33  92 S12       30.12F WCI  27
MCCOOK         CLOUDY    35  32  88 S7        30.09F WCI  29
OGALLALA       CLOUDY    36  32  88 CALM      30.04F
$$

NEZ005>010-023>029-035>040-094-310900-
NORTH CENTRAL NEBRASKA

CITY           SKY/WX    TMP DP  RH WIND       PRES   REMARKS
VALENTINE      CLOUDY    29  25  85 E5        30.05F WCI  24
AINSWORTH      CLOUDY    34  30  84 SW6       30.06F WCI  29
BROKEN BOW     CLOUDY    37  33  85 S14G23    30.09F WCI  28
O`NEILL        CLOUDY    34  29  84 SW6       30.09F WCI  29
ORD            CLOUDY    35  30  82 S8        30.11F WCI  29
THEDFORD       CLOUDY    36  33  88 CALM      30.05F
$$

NEZ041-046>049-061>064-073>077-083>087-310900-
SOUTH CENTRAL NEBRASKA

CITY           SKY/WX    TMP DP  RH WIND       PRES   REMARKS
GRAND ISLAND   CLOUDY    36  32  85 S13       30.16F WCI  27
AURORA         CLOUDY    35  33  92 S15       30.16F WCI  26
HASTINGS       LGT SNOW  33  31  92 S7        30.16F FOG     WCI  27
HEBRON         LGT RAIN  34  32  92 S6        30.23F WCI  29
HOLDREGE       MIX PCPN  33  32  96 S9        30.14F WCI  25
KEARNEY *      CLOUDY    34  30  86 S14       30.14F WCI  24
YORK           CLOUDY    36  34  93 SW12      30.18F WCI  27
$$

NEZ011>018-030>034-042>045-310900-
NORTHEAST NEBRASKA

CITY           SKY/WX    TMP DP  RH WIND       PRES   REMARKS
NORFOLK        CLOUDY    36  30  79 SW5       30.14F WCI  32
ALBION         CLOUDY    37  31  78 SW7       30.13F WCI  32
BLAIR          CLOUDY    38  30  72 SW13      30.19S WCI  30
COLUMBUS *     CLOUDY    39  30  70 SW10      30.19S WCI  32
FREMONT        CLOUDY    38  32  76 SW8G16    30.19F WCI  33
TEKAMAH        CLOUDY    34  27  75 S9        30.19F WCI  27
WAYNE          MOCLDY    33  28  83 SW8       30.14F WCI  26
$$

NEZ050>053-065>068-078-088>093-310900-
SOUTHEAST NEBRASKA

CITY           SKY/WX    TMP DP  RH WIND       PRES   REMARKS
LINCOLN        CLOUDY    39  33  79 SW15      30.23F WCI  31
OMAHA EPPLEY   CLOUDY    33  26  75 SE9       30.22F WCI  25
BEATRICE       DRIZZLE   36  34  95 SW9       30.24F WCI  29
FALLS CITY     CLOUDY    36  26  67 SW8       30.27F WCI  30
NEBRASKA CITY  CLOUDY    34  26  73 SW9       30.24S WCI  27
PLATTSMOUTH    CLOUDY    33  25  72 S8        30.22F WCI  26
$$

NEZ044-045-051>053-067-310900-
OMAHA AREA

CITY           SKY/WX    TMP DP  RH WIND       PRES   REMARKS
OMAHA EPPLEY   CLOUDY    33  26  75 SE9       30.22F WCI  25
BLAIR          CLOUDY    38  30  72 SW13      30.19S WCI  30
FREMONT        CLOUDY    38  32  76 SW8G16    30.19F WCI  33
MILLARD        CLOUDY    36  28  73 SE5       30.22S WCI  32
OFFUTT AFB     CLOUDY    31  25  79 E3        30.22F
PLATTSMOUTH    CLOUDY    33  25  72 S8        30.22F WCI  26
WAHOO          FAIR      38  31  76 SW14G20   30.20F WCI  30
$$


USA.gov is the U.S. government's official web portal to all federal, state and local government web resources and services.